Regional Weather Roundup
Issued by NWS

Home | Current Version | Previous Version | Text Only | Print | Product List | Glossary Off
Versions: 1 2 3 4 5 6 7 8 9 10 11 12 13 14 15 16 17 18 19 20 21 22 23 24 25 26 27 28 29 30 31 32 33 34 35 36 37 38 39 40 41 42 43 44 45 46 47 48 49 50

000
ASUS43 KFSD 020610
RWRSD

WEATHER ROUNDUP FOR SOUTH DAKOTA
NATIONAL WEATHER SERVICE SIOUX FALLS SD
100 AM CDT THU OCT 02 2014

NOTE: "FAIR" INDICATES FEW OR NO CLOUDS BELOW 12,000 FEET WITH NO
SIGNIFICANT WEATHER AND/OR OBSTRUCTIONS TO VISIBILITY.


SDZ001>005-009-010-012>017-020700-
NORTHWEST AND NORTH CENTRAL SOUTH DAKOTA

CITY           SKY/WX    TMP DP  RH WIND       PRES   REMARKS
BUFFALO          N/A     40  36  86 W7        29.89S
FAITH            N/A     47  43  86 W7        29.93S
MOBRIDGE       CLOUDY    52  48  86 NW6       29.88R
$$

SDZ012>016-024>037-041>051-057-063-072>074-020700-
SOUTHWEST AND SOUTH CENTRAL SOUTH DAKOTA

CITY           SKY/WX    TMP DP  RH WIND       PRES   REMARKS
RAPID CTY ARPT CLOUDY    44  38  79 W3        29.98R
PIERRE         LGT RAIN  54  49  83 W5        29.90F
CUSTER         PTCLDY    37  33  85 CALM      30.02R
ELLSWORTH AFB  MOCLDY    44  39  82 W6        29.98R
PHILIP         CLOUDY    51  47  86 W5        29.96S
PINE RIDGE     CLOUDY    48  47  96 SW3       30.00S
WINNER         LGT RAIN  54  49  83 W5        29.94R
$$

SDZ004>011-016>023-039-040-020700-
NORTHEAST SOUTH DAKOTA

CITY           SKY/WX    TMP DP  RH WIND       PRES   REMARKS
ABERDEEN       PTCLDY    47  44  90 CALM      29.88R
WATERTOWN      CLEAR     50  47  89 NW6       29.86S
SISSETON         N/A     51  49  92 NW8       29.84R
$$

SDZ017-020-022-023-036>040-048>070-020700-
SOUTHEAST SOUTH DAKOTA

CITY           SKY/WX    TMP DP  RH WIND       PRES   REMARKS
SIOUX FALLS    CLEAR     54  50  86 N6        29.85R
HURON          PTCLDY    48  45  89 CALM      29.88S
CHAMBERLAIN    CLOUDY    55  47  74 W6        29.92R
MITCHELL       MOCLDY    50  47  89 NW6       29.88F
YANKTON        CLEAR     55  50  82 N14       29.83F
$$

ABBREVIATIONS USED IN REMARKS
   TC - TEMPERATURE IN CELSIUS
  WCI - WIND CHILL INDEX
   HX - HEAT INDEX
  VSB - VISIBILITY




USA.gov is the U.S. government's official web portal to all federal, state and local government web resources and services.